When you browse on this site, cookies collect data to enhance your experience and personalize the content and advertising you see.
Visit our Privacy Policy to learn more. By continuing to use the site, you agree to this use of cookies and data.
  • In Netherlands
  • List of Countries
  • For 7 days
  • Water Temperature
  • Satellite Maps
  • Weather Map
  • Weather Widgets
  • user-avatar
    Login

    Hourly Weather Bujumbura

    Today, 17 June, Monday

    Time Temperature Precipitation Wind Pressure Humidity
    00:00 +22°C° 0 mm 1 mps 695 mmHg 88%
    01:00 +22°C° 0 mm 1 mps 694 mmHg 88%
    02:00 +22°C° 0 mm 1 mps 694 mmHg 88%
    03:00 +22°C° 0 mm 1 mps 694 mmHg 88%
    04:00 +22°C° 0 mm 1 mps 694 mmHg 88%
    05:00 +22°C° 0 mm 1 mps 694 mmHg 88%
    06:00 +23°C° 0 mm 1 mps 695 mmHg 85%
    07:00 +24°C° 0 mm 1 mps 695 mmHg 83%
    08:00 +25°C° 0 mm 1 mps 696 mmHg 80%
    09:00 +26°C° 0.1 mm 1 mps 696 mmHg 73%
    10:00 +28°C° 0.1 mm 1 mps 696 mmHg 66%
    11:00 +29°C° 0.1 mm 1 mps 696 mmHg 59%
    12:00 +29°C° 0 mm 2 mps 695 mmHg 60%
    13:00 +30°C° 0 mm 3 mps 695 mmHg 60%
    14:00 +30°C° 0 mm 3 mps 694 mmHg 60%
    15:00 +29°C° 0.2 mm 3 mps 693 mmHg 66%
    16:00 +28°C° 0.2 mm 3 mps 693 mmHg 71%
    17:00 +27°C° 0.2 mm 3 mps 693 mmHg 76%
    18:00 +26°C° 0 mm 2 mps 693 mmHg 79%
    19:00 +25°C° 0 mm 2 mps 694 mmHg 82%
    20:00 +24°C° 0 mm 2 mps 694 mmHg 84%
    21:00 +23°C° 0 mm 1 mps 694 mmHg 83%
    22:00 +23°C° 0 mm 1 mps 695 mmHg 82%
    23:00 +23°C° 0 mm 1 mps 695 mmHg 80%

    Tomorrow, 18 June, Tuesday

    Time Temperature Precipitation Wind Pressure Humidity
    00:00 +22°C° 0 mm 1 mps 695 mmHg 81%
    01:00 +22°C° 0 mm 1 mps 695 mmHg 81%
    02:00 +22°C° 0 mm 1 mps 694 mmHg 81%
    03:00 +22°C° 0 mm 1 mps 694 mmHg 81%
    04:00 +22°C° 0 mm 1 mps 694 mmHg 81%
    05:00 +21°C° 0 mm 1 mps 694 mmHg 81%
    06:00 +23°C° 0 mm 2 mps 695 mmHg 78%
    07:00 +24°C° 0 mm 2 mps 695 mmHg 75%
    08:00 +25°C° 0 mm 2 mps 696 mmHg 72%
    09:00 +27°C° 0 mm 1 mps 696 mmHg 66%
    10:00 +29°C° 0 mm 1 mps 696 mmHg 60%
    11:00 +30°C° 0 mm 1 mps 696 mmHg 55%
    12:00 +30°C° 0 mm 2 mps 695 mmHg 56%
    13:00 +30°C° 0 mm 2 mps 694 mmHg 58%
    14:00 +30°C° 0 mm 3 mps 693 mmHg 60%
    15:00 +29°C° 0.1 mm 3 mps 693 mmHg 64%
    16:00 +28°C° 0.1 mm 3 mps 693 mmHg 68%
    17:00 +28°C° 0.1 mm 3 mps 693 mmHg 72%
    18:00 +26°C° 0 mm 3 mps 693 mmHg 76%
    19:00 +25°C° 0 mm 2 mps 694 mmHg 80%
    20:00 +24°C° 0 mm 2 mps 695 mmHg 84%
    21:00 +23°C° 0 mm 1 mps 695 mmHg 82%
    22:00 +23°C° 0 mm 1 mps 695 mmHg 80%
    23:00 +23°C° 0 mm 1 mps 695 mmHg 78%

    Day after tomorrow, 19 June, Wednesday

    Time Temperature Precipitation Wind Pressure Humidity
    00:00 +23°C° 0 mm 1 mps 695 mmHg 78%
    01:00 +22°C° 0 mm 1 mps 694 mmHg 78%
    02:00 +22°C° 0 mm 1 mps 694 mmHg 78%
    03:00 +22°C° 0 mm 1 mps 694 mmHg 78%
    04:00 +22°C° 0 mm 1 mps 694 mmHg 79%
    05:00 +22°C° 0 mm 1 mps 694 mmHg 79%
    06:00 +23°C° 0 mm 1 mps 694 mmHg 75%
    07:00 +25°C° 0 mm 1 mps 695 mmHg 72%
    08:00 +26°C° 0 mm 1 mps 695 mmHg 68%
    09:00 +27°C° 0 mm 1 mps 695 mmHg 65%
    10:00 +29°C° 0 mm 1 mps 695 mmHg 61%
    11:00 +30°C° 0 mm 1 mps 695 mmHg 58%
    12:00 +30°C° 0.1 mm 2 mps 695 mmHg 59%
    13:00 +30°C° 0.1 mm 3 mps 694 mmHg 60%
    14:00 +30°C° 0.1 mm 3 mps 693 mmHg 62%
    15:00 +29°C° 0.3 mm 3 mps 693 mmHg 66%
    16:00 +28°C° 0.3 mm 3 mps 693 mmHg 71%
    17:00 +28°C° 0.3 mm 3 mps 692 mmHg 75%
    18:00 +27°C° 0.1 mm 3 mps 693 mmHg 78%
    19:00 +25°C° 0.1 mm 2 mps 694 mmHg 81%
    20:00 +24°C° 0.1 mm 2 mps 694 mmHg 84%
    21:00 +24°C° 0 mm 2 mps 694 mmHg 84%
    22:00 +24°C° 0 mm 1 mps 694 mmHg 83%
    23:00 +24°C° 0 mm 1 mps 695 mmHg 82%

    20 June, Thursday

    Time Temperature Precipitation Wind Pressure Humidity
    00:00 +24°C° 0 mm 1 mps 694 mmHg 83%
    01:00 +23°C° 0 mm 1 mps 694 mmHg 83%
    02:00 +21°C° 0 mm 0 mps 694 mmHg 84%
    03:00 +23°C° 0 mm 1 mps 694 mmHg 84%
    04:00 +23°C° 0 mm 1 mps 694 mmHg 85%
    05:00 +22°C° 0 mm 1 mps 694 mmHg 85%
    06:00 +24°C° 0 mm 1 mps 694 mmHg 82%
    07:00 +25°C° 0 mm 1 mps 695 mmHg 79%
    08:00 +26°C° 0 mm 1 mps 695 mmHg 76%
    09:00 +27°C° 0.2 mm 1 mps 695 mmHg 73%
    10:00 +28°C° 0.2 mm 2 mps 695 mmHg 69%
    11:00 +29°C° 0.2 mm 2 mps 695 mmHg 66%
    12:00 +29°C° 0.3 mm 2 mps 694 mmHg 66%
    13:00 +29°C° 0.3 mm 3 mps 693 mmHg 66%
    14:00 +29°C° 0.3 mm 4 mps 693 mmHg 66%
    15:00 +28°C° 0.2 mm 3 mps 692 mmHg 69%
    16:00 +28°C° 0.2 mm 3 mps 692 mmHg 71%
    17:00 +28°C° 0.2 mm 3 mps 692 mmHg 74%
    18:00 +26°C° 0 mm 2 mps 693 mmHg 77%
    19:00 +25°C° 0 mm 2 mps 693 mmHg 80%
    20:00 +24°C° 0 mm 1 mps 694 mmHg 83%
    21:00 +24°C° 0 mm 1 mps 694 mmHg 83%
    22:00 +23°C° 0 mm 1 mps 694 mmHg 82%
    23:00 +23°C° 0 mm 1 mps 694 mmHg 82%

    21 June, Friday

    Time Temperature Precipitation Wind Pressure Humidity
    00:00 +23°C° 0 mm 1 mps 694 mmHg 82%
    01:00 +23°C° 0 mm 1 mps 694 mmHg 82%
    02:00 +23°C° 0 mm 1 mps 693 mmHg 82%
    03:00 +22°C° 0 mm 1 mps 693 mmHg 81%
    04:00 +22°C° 0 mm 1 mps 693 mmHg 81%
    05:00 +22°C° 0 mm 1 mps 693 mmHg 80%
    06:00 +24°C° 0 mm 1 mps 694 mmHg 77%
    07:00 +25°C° 0 mm 1 mps 694 mmHg 74%
    08:00 +24°C° 0 mm 0 mps 695 mmHg 70%
    09:00 +28°C° 0 mm 1 mps 695 mmHg 67%
    10:00 +29°C° 0 mm 1 mps 694 mmHg 63%
    11:00 +30°C° 0 mm 2 mps 694 mmHg 59%
    12:00 +30°C° 0.3 mm 2 mps 693 mmHg 62%
    13:00 +30°C° 0.3 mm 3 mps 693 mmHg 65%
    14:00 +30°C° 0.3 mm 4 mps 692 mmHg 68%
    15:00 +29°C° 0.4 mm 4 mps 692 mmHg 72%
    16:00 +28°C° 0.4 mm 3 mps 692 mmHg 75%
    17:00 +27°C° 0.4 mm 3 mps 692 mmHg 79%
    18:00 +27°C° 0.2 mm 3 mps 692 mmHg 81%
    19:00 +26°C° 0.2 mm 2 mps 692 mmHg 82%
    20:00 +25°C° 0.2 mm 2 mps 693 mmHg 84%
    21:00 +25°C° 0.1 mm 1 mps 693 mmHg 84%
    22:00 +24°C° 0.1 mm 1 mps 693 mmHg 83%
    23:00 +24°C° 0.1 mm 1 mps 693 mmHg 83%

    22 June, Saturday

    Time Temperature Precipitation Wind Pressure Humidity
    00:00 +23°C° 0 mm 1 mps 693 mmHg 83%
    01:00 +23°C° 0 mm 1 mps 693 mmHg 82%
    02:00 +23°C° 0 mm 1 mps 692 mmHg 82%
    03:00 +22°C° 0 mm 1 mps 692 mmHg 82%
    04:00 +22°C° 0 mm 1 mps 693 mmHg 83%
    05:00 +22°C° 0 mm 1 mps 693 mmHg 83%
    06:00 +23°C° 0 mm 1 mps 693 mmHg 80%
    07:00 +22°C° 0 mm 0 mps 694 mmHg 77%
    08:00 +24°C° 0 mm 0 mps 694 mmHg 74%
    09:00 +27°C° 0 mm 1 mps 694 mmHg 68%
    10:00 +29°C° 0 mm 1 mps 694 mmHg 62%
    11:00 +30°C° 0 mm 1 mps 694 mmHg 55%
    12:00 +30°C° 0 mm 2 mps 693 mmHg 56%
    13:00 +30°C° 0 mm 3 mps 692 mmHg 57%
    14:00 +30°C° 0 mm 3 mps 692 mmHg 58%
    15:00 +29°C° 0.1 mm 3 mps 691 mmHg 64%
    16:00 +29°C° 0.1 mm 3 mps 691 mmHg 70%
    17:00 +28°C° 0.1 mm 3 mps 691 mmHg 76%
    18:00 +27°C° 0.2 mm 3 mps 692 mmHg 78%
    19:00 +26°C° 0.2 mm 2 mps 692 mmHg 79%
    20:00 +25°C° 0.2 mm 2 mps 693 mmHg 81%
    21:00 +25°C° 0.1 mm 2 mps 693 mmHg 81%
    22:00 +24°C° 0.1 mm 1 mps 693 mmHg 81%
    23:00 +24°C° 0.1 mm 1 mps 694 mmHg 82%
    Show more